Weather History for KMTH - August, 2012

Change the Weather History Date:

Thursday, August 30, 2012

  Actual Average Record
Temperature  
Mean Temperature 86 °F 85 °F  
Max Temperature 90 °F 91 °F 93 °F (2001)
Min Temperature 82 °F 79 °F 73 °F (2003)
Degree Days  
Heating Degree Days 0 0  
Month to date heating degree days 0 0  
Since 1 June heating degree days 0 0  
Since 1 July heating degree days 0 0  
Cooling Degree Days 21 20  
Month to date cooling degree days 629 612  
Year to date cooling degree days 3638 3369  
Since 1 June cooling degree days 1799 1826  
Growing Degree Days 36 (Base 50)    
Moisture  
Dew Point 77 °F    
Average Humidity 78    
Maximum Humidity 88    
Minimum Humidity 68    
Precipitation  
Precipitation 0.00 in 0.28 in 2.40 in (2008)
Month to date precipitation 4.87 6.72  
Year to date precipitation 35.29 28.55  
Snow  
Snow 0.00 in - - ()
Month to date snowfall 0.0  
Since 1 June snowfall 0.0  
Since 1 July snowfall 0.0  
Snow Depth 0.00 in    
Sea Level Pressure  
Sea Level Pressure 30.01 in    
Wind  
Wind Speed 7 mph (ESE)    
Max Wind Speed 12 mph    
Max Gust Speed 18 mph    
Visibility 10 miles    
Events      
T = Trace of Precipitation, MM = Missing Value Source: NWS Daily Summary

Daily Weather History Graph

Daily Weather History Graph

Search for Another Location

Airport or City:

Trip Planner

Search our weather history database for the weather conditions in past years. The results will help you decide how hot, cold, wet, or windy it might be!

Date:

Astronomy

Aug. 30, 2012 Rise Set
Actual Time 7:04 AM EDT 7:44 PM EDT
Civil Twilight 6:41 AM EDT 8:07 PM EDT
Nautical Twilight 6:14 AM EDT 8:34 PM EDT
Astronomical Twilight 5:46 AM EDT 9:02 PM EDT
Moon 7:01 PM EDT (8/30) 6:05 AM EDT (8/30)
Length of Visible Light 13h 25m
Length of Day
12h 39m
Waxing Gibbous, 99% of the Moon is Illuminated
Aug 30
Waxing Gibbous
Aug 31
Full
Sep 8
Last Quarter
Sep 15
New
Sep 22
First Quarter

Hourly Weather History & Observations

Time (EDT) Temp. Heat Index Dew Point Humidity Pressure Visibility Wind Dir Wind Speed Gust Speed Precip Events Conditions
12:53 AM 82.9 °F 90.8 °F 75.9 °F 79% 30.00 in 10.0 mi SE 8.1 mph - N/A   Clear
1:53 AM 82.9 °F 90.8 °F 75.9 °F 79% 30.00 in 10.0 mi SE 9.2 mph - N/A   Partly Cloudy
2:53 AM 82.9 °F 91.8 °F 77.0 °F 82% 29.99 in 10.0 mi SSE 6.9 mph - N/A   Partly Cloudy
3:53 AM 82.9 °F 92.8 °F 78.1 °F 85% 29.97 in 10.0 mi SSE 5.8 mph - N/A   Partly Cloudy
4:10 AM 82.4 °F 92.4 °F 78.8 °F 89% 29.97 in 10.0 mi SE 6.9 mph - N/A   Mostly Cloudy
4:21 AM 82.4 °F 90.9 °F 77.0 °F 84% 29.96 in 10.0 mi SE 5.8 mph - N/A   Scattered Clouds
4:31 AM 82.4 °F 90.9 °F 77.0 °F 84% 29.96 in 10.0 mi SE 4.6 mph - N/A   Mostly Cloudy
4:42 AM 82.4 °F 90.9 °F 77.0 °F 84% 29.96 in 10.0 mi Variable 5.8 mph - N/A   Scattered Clouds
4:53 AM 82.9 °F 91.8 °F 77.0 °F 82% 29.96 in 10.0 mi SSE 5.8 mph - N/A   Mostly Cloudy
5:53 AM 82.9 °F 91.8 °F 77.0 °F 82% 29.96 in 10.0 mi SSE 4.6 mph - N/A   Partly Cloudy
6:53 AM 82.0 °F 90.2 °F 77.0 °F 85% 29.96 in 10.0 mi Variable 4.6 mph - N/A   Clear
7:53 AM 82.9 °F 91.8 °F 77.0 °F 82% 29.99 in 10.0 mi SE 4.6 mph - N/A   Partly Cloudy
8:53 AM 84.9 °F 95.3 °F 77.0 °F 77% 30.00 in 10.0 mi SE 6.9 mph - N/A   Clear
9:53 AM 86.0 °F 99.3 °F 79.0 °F 79% 30.02 in 10.0 mi SE 6.9 mph - N/A   Mostly Cloudy
10:53 AM 88.0 °F 101.3 °F 78.1 °F 72% 30.05 in 10.0 mi SE 8.1 mph - N/A   Unknown
11:53 AM 88.0 °F 101.3 °F 78.1 °F 72% 30.05 in 10.0 mi Variable 6.9 mph - N/A   Partly Cloudy
12:53 PM 89.1 °F 103.2 °F 78.1 °F 70% 30.06 in 10.0 mi SE 5.8 mph - N/A   Clear
1:53 PM 89.1 °F 101.4 °F 77.0 °F 67% 30.05 in 10.0 mi ESE 8.1 mph - N/A   Clear
2:53 PM 89.1 °F 101.4 °F 77.0 °F 67% 30.04 in 10.0 mi Variable 6.9 mph - N/A   Clear
3:53 PM 90.0 °F 102.5 °F 77.0 °F 65% 30.03 in 10.0 mi Variable 6.9 mph - N/A   Partly Cloudy
4:53 PM 88.0 °F 100.2 °F 77.0 °F 70% 30.01 in 10.0 mi ESE 9.2 mph - N/A   Clear
5:53 PM 86.0 °F 96.9 °F 77.0 °F 74% 30.02 in 10.0 mi East 8.1 mph - N/A   Partly Cloudy
6:53 PM 84.9 °F 96.6 °F 78.1 °F 80% 30.03 in 10.0 mi East 6.9 mph - N/A   Partly Cloudy
7:38 PM 84.2 °F 96.1 °F 78.8 °F 84% 30.03 in 10.0 mi ESE 5.8 mph - N/A   Mostly Cloudy
7:53 PM 84.9 °F 95.3 °F 77.0 °F 77% 30.03 in 10.0 mi East 10.4 mph - N/A   Mostly Cloudy
8:06 PM 84.2 °F 94.1 °F 77.0 °F 79% 30.03 in 10.0 mi East 6.9 mph - N/A   Scattered Clouds
8:53 PM 84.0 °F 93.7 °F 77.0 °F 79% 30.05 in 10.0 mi East 5.8 mph - N/A   Clear
9:53 PM 84.0 °F 94.8 °F 78.1 °F 82% 30.07 in 10.0 mi East 6.9 mph - N/A   Clear
10:53 PM 84.0 °F 93.7 °F 77.0 °F 79% 30.09 in 10.0 mi East 6.9 mph - N/A   Clear
11:53 PM 84.0 °F 94.8 °F 78.1 °F 82% 30.10 in 10.0 mi Variable 4.6 mph - N/A   Clear